STARLINK-33689, 63322

Orbit data source: Space-Track

STARLINK-33689, 63322 is a payload satellite owned by SpaceX/Seattle (US) in LEO that was launched on Tue, 18 Mar 2025 UTC via an FALCON 9 launch vehicle from the Air Force Eastern Test Range (AFETR). Payload-class satellites include a variety of spacecraft equipped with specific instruments for various scientific and technological missions. These include communications satellites like Starlink; space stations such as the ISS; scientific satellites like the Hubble; Earth observation satellites from companies like Planet Labs, Umbra, and HawkEye 360; GPS; miniature CubeSats for education and research; and military/defense satellites.

Loading next visibility...
Identifier
63322, 2025-057R
Orbit
LEO
Country
Flag of USUS
Related business
Manufacturer
SpaceX/Seattle
Mission
Operational Commercial Communications
Bus & Motor
STARLINK V2MO, Unknown motor
Mass
575 kg wet, ~530 kg dry
Launch date (UTC)
2025-03-18 (1 year ago)
Launch vehicle
FALCON 9
Launch site
Air Force Eastern Test Range (AFETR)
Object type
Payload
Rocket body
Debris
Shape & HBR
Box + 1 Pan, 17.7 m
Radar Cross Section
41.120 m², Large (>1 m²)

Expand to show TLE details & history
Last TLE update: 13 hours ago

TLE from 13 hours ago
0 STARLINK-33689
1 63322U 25057R   26257.41100272  .00015830  00000-0  58342-3 0  9996
2 63322  43.0055  44.7260 0002528 290.4085  69.6495 15.27585080 84645
Epoch: 2026-09-14T09:51Z
TLE epoch observation values (Epoch: 2026-09-14T09:51:50.635Z)
Latitude
-0.00005°
Longitude
-96.62672°
Altitude
482.207 km
Speed
7.627 km/s
True Right ascension
02h 58m 54s
True Declination
0° 00' 00"
Sunlit
Object was in full shadow at epoch
Visualization orbit readout
Latitude
Unknown
Longitude
Unknown
Altitude
Unknown
Speed
Unknown
Apparent Right ascension
Unknown
Apparent Declination
Unknown
Sunlit
N/A
Visualization observer readout
Local Sidereal Time
15:01:46
Azimuth
Unknown
Elevation
Unknown
Doppler factor
Unknown
Orbital elements
Apogee altitude
486.713 km
Perigee altitude
483.243 km
Semi-major axis
6,863.115 km
Eccentricity
0.00025
Inclination
43.0055°
RAAN
44.726°
Arg. of periapsis
290.4085°
True anomaly
69.67666°
Mean anomaly
69.6495°
Eccentric anomaly
69.66308°
Mean motion
3.81734 °/min
Orbital period
94.31 mins
BSTAR
0.00058342
Loading maneuver chart data...
Computing Atmospheric mass density...
Loading historical data...
Loading historical data...
Loading historical data...
Loading historical data...
Loading historical data...
Loading historical data...
Loading historical data...

Documentation

Showing up to 5 results
|